Natchitoches, LA

6:43 PM CST on November 14, 2019 (GMT -0600)
Natchitoches Regional

Weather History for KIER - September, 2019

Change the Weather History Date:

Sunday, September 15, 2019

  Actual Average Record
Temperature  
Mean Temperature 83 °F -  
Max Temperature 98 °F 88 °F 102 °F (1954)
Min Temperature 68 °F 67 °F 50 °F (1945)
Cooling Degree Days 18    
Growing Degree Days 33 (Base 50)    
Moisture  
Dew Point 69 °F    
Average Humidity 67    
Maximum Humidity 99    
Minimum Humidity 37    
Precipitation  
Precipitation 0.00 in - - ()
Sea Level Pressure  
Sea Level Pressure 30.04 in    
Wind  
Wind Speed 3 mph (ENE)    
Max Wind Speed 13 mph    
Max Gust Speed 20 mph    
Visibility 10 miles    
Events      
Averages and records for this station are not official NWS values.
T = Trace of Precipitation, MM = Missing Value Source: NWS Daily Summary

Daily Weather History Graph

Daily Weather History Graph

Search for Another Location

Airport or City:

Astronomy

Sep. 15, 2019 Rise Set
Actual Time 6:56 AM CDT 7:18 PM CDT
Civil Twilight 6:31 AM CDT 7:42 PM CDT
Nautical Twilight 6:03 AM CDT 8:11 PM CDT
Astronomical Twilight 5:34 AM CDT 8:40 PM CDT
Moon 8:29 PM CDT 8:05 AM CDT
Length of Visible Light 13h 11m
Length of Day
12h 22m
Full, 98% of the Moon is Illuminated
Sep 15
Full
Sep 21
Last Quarter
Sep 28
New
Oct 5
First Quarter
Oct 13
Full

Hourly Weather History & Observations

Time (CDT) Temp. Heat Index Dew Point Humidity Pressure Visibility Wind Dir Wind Speed Gust Speed Precip Events Conditions
12:15 AM 72.0 °F - 68.9 °F 90% 30.08 in 10.0 mi Calm Calm - N/A   Clear
12:35 AM 71.8 °F - 68.5 °F 89% 30.08 in 10.0 mi Calm Calm - N/A   Clear
12:55 AM 71.6 °F - 68.5 °F 90% 30.08 in 10.0 mi Calm Calm - N/A   Clear
1:15 AM 70.9 °F - 68.5 °F 92% 30.08 in 10.0 mi Calm Calm - N/A   Clear
1:35 AM 70.7 °F - 68.4 °F 92% 30.08 in 10.0 mi Calm Calm - N/A   Clear
1:55 AM 70.5 °F - 68.5 °F 93% 30.09 in 10.0 mi Calm Calm - N/A   Clear
2:15 AM 70.5 °F - 68.4 °F 93% 30.08 in 10.0 mi Calm Calm - N/A   Clear
2:35 AM 69.6 °F - 67.5 °F 93% 30.08 in 10.0 mi Calm Calm - N/A   Clear
2:55 AM 69.4 °F - 67.5 °F 93% 30.08 in 10.0 mi Calm Calm - N/A   Clear
3:15 AM 69.3 °F - 67.6 °F 95% 30.08 in 10.0 mi WNW 3.5 mph - N/A   Clear
3:35 AM 69.3 °F - 68.0 °F 96% 30.08 in 10.0 mi Calm Calm - N/A   Clear
3:55 AM 69.4 °F - 68.0 °F 95% 30.07 in 10.0 mi Calm Calm - N/A   Clear
4:15 AM 68.9 °F - 67.3 °F 95% 30.07 in 10.0 mi Calm Calm - N/A   Clear
4:35 AM 69.3 °F - 67.5 °F 94% 30.07 in 10.0 mi Calm Calm - N/A   Clear
4:55 AM 69.1 °F - 68.0 °F 96% 30.07 in 10.0 mi Calm Calm - N/A   Clear
5:15 AM 68.9 °F - 68.0 °F 97% 30.07 in 10.0 mi Calm Calm - N/A   Clear
6:15 AM 68.4 °F - 68.0 °F 99% 30.08 in 7.0 mi Calm Calm - N/A   Clear
6:35 AM 68.4 °F - 68.0 °F 99% 30.08 in 7.0 mi Calm Calm - N/A   Clear
6:55 AM 68.2 °F - 67.6 °F 98% 30.08 in 7.0 mi Calm Calm - N/A   Clear
7:15 AM 68.4 °F - 68.0 °F 99% 30.08 in 7.0 mi Calm Calm - N/A   Clear
7:35 AM 69.8 °F - 68.5 °F 96% 30.08 in 10.0 mi Calm Calm - N/A   Clear
8:15 AM 76.3 °F - 71.2 °F 84% 30.08 in 10.0 mi Calm Calm - N/A   Clear
8:35 AM 79.9 °F - 69.1 °F 69% 30.08 in 10.0 mi ENE 3.5 mph - N/A   Clear
8:55 AM 82.4 °F 85.8 °F 69.3 °F 64% 30.08 in 10.0 mi NNE 4.6 mph - N/A   Clear
9:15 AM 84.4 °F 88.5 °F 69.8 °F 61% 30.08 in 10.0 mi NE 3.5 mph - N/A   Clear
9:55 AM 87.4 °F 91.9 °F 69.4 °F 55% 30.09 in 10.0 mi NE 5.8 mph - N/A   Clear
10:15 AM 88.7 °F 93.0 °F 69.1 °F 52% 30.09 in 10.0 mi NE 6.9 mph - N/A   Clear
10:35 AM 89.2 °F 94.1 °F 69.6 °F 52% 30.09 in 10.0 mi NE 4.6 mph - N/A   Clear
10:55 AM 91.0 °F 96.6 °F 69.8 °F 50% 30.08 in 10.0 mi NE 4.6 mph - N/A   Clear
11:15 AM 92.3 °F 97.6 °F 69.3 °F 47% 30.08 in 10.0 mi NNE 5.8 mph - N/A   Clear
11:35 AM 93.2 °F 98.3 °F 68.9 °F 45% 30.08 in 10.0 mi East 8.1 mph - N/A   Clear
11:55 AM 93.9 °F 99.7 °F 69.8 °F 45% 30.07 in 10.0 mi NE 6.9 mph - N/A   Clear
12:15 PM 94.6 °F 100.0 °F 69.1 °F 43% 30.06 in 10.0 mi East 9.2 mph - N/A   Mostly Cloudy
12:35 PM 95.9 °F 101.9 °F 69.3 °F 42% 30.06 in 10.0 mi ESE 12.7 mph - N/A   Scattered Clouds
1:15 PM 96.1 °F 101.0 °F 68.2 °F 40% 30.05 in 10.0 mi ESE 10.4 mph - N/A   Scattered Clouds
1:35 PM 96.6 °F 101.5 °F 68.2 °F 39% 30.03 in 10.0 mi NE 8.1 mph 16.1 mph N/A   Scattered Clouds
1:55 PM 95.2 °F 100.5 °F 68.5 °F 42% 30.03 in 10.0 mi NE 8.1 mph - N/A   Mostly Cloudy
2:15 PM 96.4 °F 102.4 °F 69.3 °F 41% 30.02 in 10.0 mi ENE 9.2 mph - N/A   Scattered Clouds
2:35 PM 98.1 °F 103.7 °F 68.2 °F 38% 30.01 in 10.0 mi ENE 8.1 mph - N/A   Clear
2:55 PM 97.9 °F 102.7 °F 67.5 °F 37% 30.00 in 10.0 mi NE 9.2 mph 19.6 mph N/A   Clear
3:15 PM 97.5 °F 103.3 °F 69.1 °F 39% 29.98 in 10.0 mi NNE 11.5 mph - N/A   Clear
3:35 PM 95.9 °F 100.7 °F 68.2 °F 40% 29.98 in 10.0 mi East 10.4 mph - N/A   Scattered Clouds
3:55 PM 98.1 °F 103.0 °F 67.5 °F 37% 29.98 in 10.0 mi East 10.4 mph - N/A   Clear
4:15 PM 98.2 °F 103.4 °F 68.0 °F 37% 29.98 in 10.0 mi NE 11.5 mph - N/A   Clear
4:35 PM 97.3 °F 102.3 °F 67.5 °F 38% 29.97 in 10.0 mi ENE 10.4 mph - N/A   Scattered Clouds
4:55 PM 97.9 °F 103.3 °F 68.0 °F 38% 29.97 in 10.0 mi East 9.2 mph - N/A   Scattered Clouds
5:15 PM 97.2 °F 101.9 °F 67.5 °F 38% 29.97 in 10.0 mi ENE 12.7 mph - N/A   Clear
5:35 PM 96.4 °F 101.1 °F 67.6 °F 39% 29.97 in 10.0 mi NE 10.4 mph - N/A   Clear
5:55 PM 95.0 °F 99.5 °F 68.2 °F 41% 29.97 in 10.0 mi NE 8.1 mph - N/A   Clear
6:35 PM 94.3 °F 98.2 °F 67.1 °F 41% 29.98 in 10.0 mi ENE 9.2 mph - N/A   Scattered Clouds
6:55 PM 92.5 °F 96.4 °F 67.5 °F 44% 29.98 in 10.0 mi East 5.8 mph - N/A   Scattered Clouds
7:15 PM 90.5 °F 93.8 °F 67.3 °F 46% 29.98 in 10.0 mi ENE 4.6 mph - N/A   Clear
7:35 PM 88.3 °F 91.6 °F 67.5 °F 50% 29.98 in 10.0 mi ENE 4.6 mph - N/A   Clear
7:55 PM 87.4 °F 90.8 °F 68.0 °F 52% 29.98 in 10.0 mi ENE 4.6 mph - N/A   Clear
8:15 PM 86.4 °F 89.7 °F 68.0 °F 54% 29.98 in 10.0 mi ENE 3.5 mph - N/A   Clear
8:35 PM 85.1 °F 88.5 °F 68.5 °F 57% 29.99 in 10.0 mi Calm Calm - N/A   Clear
8:55 PM 81.1 °F 84.5 °F 69.6 °F 68% 29.99 in 10.0 mi Calm Calm - N/A   Clear
9:35 PM 77.9 °F - 70.3 °F 77% 30.01 in 10.0 mi Calm Calm - N/A   Clear
9:55 PM 77.4 °F - 71.1 °F 81% 30.02 in 10.0 mi Calm Calm - N/A   Clear
10:15 PM 77.0 °F - 70.9 °F 81% 30.02 in 10.0 mi Calm Calm - N/A   Clear
10:35 PM 76.1 °F - 70.9 °F 84% 30.02 in 10.0 mi Calm Calm - N/A   Clear
10:55 PM 75.6 °F - 70.9 °F 85% 30.02 in 10.0 mi Calm Calm - N/A   Clear
11:15 PM 75.4 °F - 70.9 °F 86% 30.02 in 10.0 mi Calm Calm - N/A   Clear
11:35 PM 74.8 °F - 70.9 °F 87% 30.02 in 10.0 mi Calm Calm - N/A   Clear
11:55 PM 74.8 °F - 71.1 °F 88% 30.02 in 10.0 mi Calm Calm - N/A   Clear